www.pogodaiklimat.ru

Погода и климат >> Архив погоды >> Италия >> Капо Карбонара


ПОГОДА на Капо Карбонара

  • Прогноз погоды на Капо Карбонара
  • Монитор погоды на Капо Карбонара

АРХИВ ПОГОДЫ на Капо Карбонара

Время (UTC), дата Ветер
(напр.,м/с)
 
Видим.   Явления Облачность Т
(С)
Тd
(С)
f
(%)
Тe
(С)
Тes
(С)
Комфортность P
(гПа)
Po
(гПа)
Тmin
(С)
Tmax
(С)
R
(мм)
R24
(мм)
S
(см)
03 13.06 В 5 10 км ясно +20.2 +18.8 92 +24 +24 комфорт 1014.0 1000.2
06 13.06 В 5 10 км ясно +20.2 +17.8 86 +23 +25 комфорт 1014.6 1000.8 +18.6
09 13.06 В 9 10 км ясно +22.0 +18.8 82 +27 +28 душно 1015.1 1001.4
12 13.06 В 11 10 км 1/0
[Ci fib]
+23.0 +20.2 84 +30 +30 очень
душно
1015.1 1001.4
15 13.06 СВ 13 10 км ясно +23.8 +16.3 63 +27 +27 жарко 1014.1 1000.5
18 13.06 СВ 13 10 км ясно +23.8 +16.8 65 +27 +27 жарко 1013.4 999.8 +24.0
21 13.06 СВ 12 10 км ясно +22.8 +14.6 60 +26 +26 жарко 1013.9 1000.3
00 14.06 СВ 5 10 км 1/0 2000 м
[Ac trans]
+23.0 +15.6 63 +27 +27 душно 1014.1 1000.5
03 14.06 СВ 14 10 км ясно +22.8 +19.2 80 +29 +29 очень
душно
1012.1 998.5
06 14.06 СВ 12 10 км 6/0
[Ci fib]
+23.4 +20.7 85 +31 +31 очень
душно
1012.6 999.0 +22.6
09 14.06 В 12 10 км 8/0
[Cs]
+23.4 +22.5 95 +32 +32 очень
душно
1012.8 999.2
12 14.06 В 9 10 км 10/3 1200 м
[Sc As op Cs]
+25.2 +21.5 80 +32 +33 очень
душно
1013.2 999.7
15 14.06 СЗ 3 10 км гроза без осадков 9/4 750 м
[Cb cap As trans Ci fib]
+25.0 +21.7 82 +32 +35 очень
душно
1013.7 1000.1
18 14.06 ЮЗ 6 10 км {гроза} 8/4 750 м
[Sc Ac As Ci fib]
+22.4 +21.7 96 +30 +30 очень
душно
1013.6 999.9 +26.6
21 14.06 З 13 10 км 1/1 900 м
[Cu hum Ci fib]
+22.4 +20.0 86 +29 +29 очень
душно
1014.2 1000.5
00 15.06 З 13 10 км ясно +21.4 +19.6 89 +26 +26 душно 1014.1 1000.3
03 15.06 З 11 10 км 1/0
[Ci fib]
+21.2 +19.3 89 +26 +26 душно 1014.1 1000.3
06 15.06 В 4 10 км ясно +21.6 +19.7 89 +27 +29 душно 1015.3 1001.5 +20.6
18 15.06 ЮЗ 3 20 км ясно +23.6 +22.7 95 +31 +31 очень
душно
1015.7 1002.1 0.0
21 15.06 ЮЗ 6 20 км ясно +22.0 +20.1 89 +28 +28 душно 1015.9 1002.2
09 16.06 В 4 10 км ясно +23.8 +21.7 88 +30 +42 очень
душно
1016.2 1002.6
12 16.06 В 2 10 км 3/1 540 м
[Cu hum Ci fib]
+25.0 +22.7 87 +33 +50 очень
душно
1015.9 1002.3
15 16.06 ЮЗ 4 10 км 4/1 600 м
[Cu hum Ci fib]
+25.0 +22.2 84 +32 +38 очень
душно
1015.5 1001.9
18 16.06 Ю 2 10 км 6/0
[Ci sp]
+22.8 +19.2 80 +29 +29 очень
душно
1015.2 1001.5 +25.8
21 16.06 ЮЗ 3 10 км 3/0
[Ci fib]
+21.6 +19.6 88 +27 +27 душно 1015.1 1001.4
00 17.06 В 3 10 км 8/0 2000 м
[Ac trans Ci fib]
+21.0 +18.4 85 +26 +26 душно 1014.8 1001.0
03 17.06 СВ 6 10 км 3/1 600 м
[Cu hum Ci fib]
+20.6 +18.1 86 +24 +24 комфорт 1014.5 1000.7
06 17.06 З 2 10 км 3/1 300 м
[Cu hum Ci fib]
+20.2 +17.4 84 +24 +26 комфорт 1014.8 1001.0 +19.8
09 17.06 ЮЗ 4 10 км 4/1 450 м
[Cu hum Ci fib]
+22.0 +19.2 84 +27 +37 душно 1015.2 1001.5
12 17.06 Ю 4 10 км 4/1 600 м
[Cu Sc Ci fib]
+25.0 +22.1 84 +32 +43 очень
душно
1015.3 1001.8
15 17.06 В 2 10 км 8/1 600 м
[Cu Sc Ac trans Ci fib]
+24.2 +22.1 88 +31 +37 очень
душно
1013.8 1000.2
18 17.06 ЮЗ 4 10 км 8/3 300 м
[Cu Sc Ac trans Ci fib]
+21.8 +19.3 86 +27 +27 душно 1013.9 1000.2 +26.0
21 17.06 ЮЗ 3 20 км 4/1 300 м
[Cu med, cong Ac trans]
+21.2 +18.8 86 +26 +26 душно 1014.5 1000.8
00 18.06 СВ 3 20 км 1/1 300 м
[Cu hum Ac trans]
+21.4 +17.2 77 +25 +25 комфорт 1014.4 1000.6
03 18.06 В 2 20 км 1/0 2000 м
[Ac trans]
+20.4 +17.9 86 +25 +25 комфорт 1013.9 1000.1
06 18.06 СВ 2 20 км ясно +21.6 +18.8 84 +26 +30 душно 1014.2 1000.5 +20.0
09 18.06 СВ 2 20 км ясно +22.4 +19.3 83 +28 +43 душно 1015.0 1001.3
12 18.06 ЮЗ 4 20 км ясно +24.4 +21.7 85 +31 +46 очень
душно
1015.3 1001.6
15 18.06 В 6 20 км ясно +23.4 +21.4 89 +32 +35 очень
душно
1014.6 1001.0
18 18.06 ЮЗ 5 20 км ясно +22.6 +20.7 89 +29 +30 очень
душно
1014.3 1000.6 +25.6
21 18.06 ЮЗ 5 20 км ясно +20.8 +17.7 82 +25 +25 комфорт 1014.7 1000.9
00 19.06 ЮЗ 4 20 км ясно +20.6 +17.8 84 +24 +24 комфорт 1014.4 1000.6
03 19.06 штиль 0 20 км ясно +20.0 +16.4 80 +22 +22 комфорт 1014.0 1000.2
06 19.06 В 3 20 км ясно +22.0 +16.8 72 +26 +29 душно 1014.1 1000.4 +20.0
09 19.06 ЮВ 3 20 км ясно +23.0 +20.2 84 +30 +42 очень
душно
1014.8 1001.1
12 19.06 ЮВ 3 20 км 6/0 2000 м
[Ac lent Ci fib]
+25.6 +21.7 79 +33 +46 очень
душно
1014.7 1001.2
15 19.06 ЮЗ 5 20 км 4/0
[Ci fib]
+25.0 +21.4 80 +32 +37 очень
душно
1014.6 1001.0
18 19.06 ЮЗ 7 20 км 3/0
[Ci fib]
+24.4 +15.6 58 +27 +28 жарко 1013.9 1000.3 +26.4
21 19.06 ЮЗ 4 20 км ясно +22.4 +15.5 65 +26 +26 жарко 1014.4 1000.7

 

Местоположение метеостанции Капо Карбонара (Италия): широта 39.10 долгота 9.52 высота над уровнем моря 118 м.

В архиве по умолчанию представлена погода на Капо Карбонара за последнюю неделю. Архивные данные за месяц целиком и за предыдущие месяцы, начиная с января 2011 года, Вы можете получить, выбрав интересующий диапазон дат из раскрывающегося списка и нажав кнопку "Ввод!".


*Определитесь, кто Вы:
робот инопланетянин человек

Внимание! Время в таблицах - всемирное. Для получения местного времени необходимо прибавить поправку, которая равна 1 ч.

Смотрите также архив погоды в соседних городах и на ближайших метеорологических станциях:

Погода в Дечимоманну (Италия) (55 км)
Погода на Капо Беллависто (Италия) (94 км)
Погода на Капо Фраска (Италия) (116 км)
Погода на Капо Кацция (Италия) (200 км)
Погода в Ольвии (Италия) (200 км)
Погода в Альгеро (Италия) (200 км)
Погода в Бизерте (Тунис) (207 км)
Погода в Табарке (Тунис) (248 км)
Погода на Мысе Пертюзато (Франция) (254 км)
Погода в Тунисе (Тунис) (260 км)

Пояснения к столбцам:

Ветер - указаны скорость ветра в м/с - средняя за 10 мин, порывы в срок и между сроками (в фигурных скобках) и направление, откуда дует ветер: С - северный, СВ - северо-восточный, В - восточный, ЮВ - юго-восточный, Ю - южный, ЮЗ - юго-западный, З - западный, СЗ - северо-западный.
Видимость - горизонтальная дальность видимости в метрах или километрах. При видимости от 1 до 10 км при отсутствии осадков обычно наблюдается дымка, при ухудшении видимости до 1 км и менее - туман. В сухую погоду видимость может ухудшаться дымом, пылью или мглою.
Явления - указаны атмосферные явления, наблюдавшиеся в срок или в последний час перед сроком; фигурными скобками обозначены явления, наблюдавшиеся между сроками (за 1-3 часа до срока); квадратными скобками обозначены град или гололедные отложения с указанием их диаметра в мм.
Облачность - указаны через наклонную черту общая и нижняя облачность в баллах и высота нижней границы облаков в метрах; квадратными скобками обозначены формы облаков: Ci - перистые, Cs - перисто-слоистые, Cc - перисто-кучевые, Ac - высококучевые, As - высокослоистые, Sc - слоисто-кучевые, Ns - слоисто-дождевые, Cu - кучевые, Cb - кучево-дождевые. Подробнее классификацию облаков см. в Атласе облаков (PDF).
T - Температура воздуха - температура, измеренная на высоте 2 м над землей.
Td - Температура точки росы - температура, при понижении до которой содержащийся в воздухе водяной пар достигнет насыщения.
f - Относительная влажность воздуха - влажноcть воздуха, измеренная на высоте 2 м над землей.
Te - Эффективная температура - температура, которую ощущает одетый по сезону человек в тени. Характеристика душности погоды. При расчете учитывается влияние влажности воздуха и скорости ветра на теплоощущения человека.
Tes - Эффективная температура на солнце - температура, которую ощущает человек, с поправкой на солнечный нагрев. Характеристика знойности погоды. Зависит от высоты солнца над горизонтом, облачности и скорости ветра. Ночью, в пасмурную погоду, а также при ветре 12 м/с и более поправка равна нулю.
P - Атмосферное давление - приведенное к уровню моря атмосферное давление.
Po - Атмосферное давление - измеренное на уровне метеостанции атмосферное давление.
Tmin - Минимальная температура - минимум температуры воздуха на высоте 2 м над землей.
Tmax - Максимальная температура - максимум температуры воздуха на высоте 2 м над землей.
R - Количество осадков - Количество выпавших осадков за период времени, мм. При наведении курсора мыши на число - период времени, за который выпало указанное количество осадков.
R24 - Количество осадков - Количество выпавших осадков за 24 часа, мм.
S - Снежный покров - Высота снежного покрова, см. При наведении курсора мыши на число - состояние снежного покрова и степень покрытия местности в баллах.